DAL9328 KPDX-KGEG

Flight info

Callsign DAL9328
Flight time N/A
Altitude 33000
Route KYKM
Aircraft A20N/M-SDE2E3FGHIRWXY/LB1

Departure

Time 2026-05-03 20:17
Airport Portland International Airport (KPDX)

Arrival

Time N/A
Airport Spokane International Airport (KGEG)
Time Latitude Longitude Altitude Speed Heading
2026-05-03 20:15 45.58114 -122.58368 40 ft 7 kts 206°
2026-05-03 20:15 45.58077 -122.58435 40 ft 10 kts 258°
2026-05-03 20:15 45.58086 -122.58478 43 ft 0 kts 298°
2026-05-03 20:16 45.58088 -122.58482 43 ft 10 kts 298°
2026-05-03 20:16 45.58280 -122.58974 44 ft 102 kts 299°
2026-05-03 20:16 45.58761 -122.60241 90 ft 179 kts 298°
2026-05-03 20:16 45.59364 -122.61624 531 ft 198 kts 301°
2026-05-03 20:17 45.60225 -122.63313 1206 ft 221 kts 312°
2026-05-03 20:17 45.61375 -122.64876 1845 ft 244 kts 323°
2026-05-03 20:17 45.62863 -122.66267 2510 ft 266 kts 334°
2026-05-03 20:17 45.64638 -122.67257 3275 ft 285 kts 347°
2026-05-03 20:18 45.66627 -122.67949 4033 ft 303 kts 348°
2026-05-03 20:18 45.68623 -122.68980 5047 ft 308 kts 327°
2026-05-03 20:18 45.70001 -122.71220 6537 ft 296 kts 298°
2026-05-03 20:18 45.70772 -122.73889 7945 ft 289 kts 290°
2026-05-03 20:19 45.71512 -122.76627 8867 ft 308 kts 293°
2026-05-03 20:19 45.72571 -122.79497 9079 ft 345 kts 302°
2026-05-03 20:19 45.74084 -122.82394 9017 ft 384 kts 311°
2026-05-03 20:19 45.76028 -122.85233 8913 ft 414 kts 320°
2026-05-03 20:20 45.78337 -122.87452 10615 ft 381 kts 330°
2026-05-03 20:20 45.80596 -122.89177 12512 ft 358 kts 336°
2026-05-03 20:20 45.82850 -122.90450 14313 ft 338 kts 343°
2026-05-03 20:20 45.85072 -122.91197 15942 ft 320 kts 353°
2026-05-03 20:21 45.87233 -122.91330 17566 ft 302 kts
2026-05-03 20:21 45.89232 -122.90746 19001 ft 284 kts 22°
2026-05-03 20:21 45.90900 -122.89424 20270 ft 268 kts 34°
2026-05-03 20:21 45.92537 -122.88230 21400 ft 260 kts 22°
2026-05-03 20:22 45.94238 -122.87497 22489 ft 252 kts 19°
2026-05-03 20:22 45.95923 -122.86957 23517 ft 245 kts
2026-05-03 20:22 45.97638 -122.87024 24114 ft 252 kts 358°
2026-05-03 20:22 45.99471 -122.87358 24192 ft 279 kts 354°
2026-05-03 20:23 46.01465 -122.87914 24304 ft 304 kts 351°
2026-05-03 20:23 46.02853 -122.88414 24407 ft 319 kts 348°
2026-05-03 20:23 46.05050 -122.89395 24589 ft 341 kts 344°
2026-05-03 20:23 46.07366 -122.90673 24778 ft 361 kts 341°
2026-05-03 20:24 46.09702 -122.92110 24984 ft 379 kts 340°
2026-05-03 20:24 46.12150 -122.93631 25210 ft 394 kts 340°
2026-05-03 20:24 46.14819 -122.95135 24662 ft 422 kts 345°
2026-05-03 20:24 46.17710 -122.96197 23767 ft 436 kts 352°
2026-05-03 20:25 46.20795 -122.96779 22343 ft 457 kts 358°
2026-05-03 20:25 46.24033 -122.96879 21160 ft 470 kts
2026-05-03 20:25 46.27258 -122.96815 21174 ft 455 kts
2026-05-03 20:25 46.30373 -122.96750 21183 ft 441 kts
2026-05-03 20:26 46.33373 -122.96664 21112 ft 421 kts
2026-05-03 20:26 46.36241 -122.96431 20926 ft 405 kts
2026-05-03 20:26 46.38999 -122.96077 20741 ft 391 kts
2026-05-03 20:26 46.41667 -122.95715 20527 ft 378 kts
2026-05-03 20:27 46.44274 -122.95364 20301 ft 383 kts
2026-05-03 20:27 46.46980 -122.94996 20100 ft 397 kts
2026-05-03 20:27 46.49783 -122.94611 19963 ft 409 kts
2026-05-03 20:27 46.52646 -122.94215 19843 ft 418 kts
2026-05-03 20:28 46.55570 -122.93809 19753 ft 425 kts
2026-05-03 20:28 46.58540 -122.93396 19677 ft 430 kts
2026-05-03 20:28 46.61528 -122.92977 19617 ft 434 kts
2026-05-03 20:28 46.64510 -122.92556 19564 ft 436 kts
2026-05-03 20:29 46.67571 -122.92120 19526 ft 437 kts
2026-05-03 20:29 46.70491 -122.91698 19481 ft 438 kts
2026-05-03 20:29 46.73592 -122.91222 19424 ft 438 kts
2026-05-03 20:29 46.76579 -122.90316 18862 ft 435 kts 17°
2026-05-03 20:30 46.79398 -122.88754 17598 ft 437 kts 28°
2026-05-03 20:30 46.81918 -122.86348 16995 ft 425 kts 37°
2026-05-03 20:30 46.84210 -122.83783 16637 ft 405 kts 40°
2026-05-03 20:30 46.86262 -122.80999 15763 ft 401 kts 46°
2026-05-03 20:31 46.88026 -122.77832 14648 ft 404 kts 58°
2026-05-03 20:31 46.89194 -122.74081 13480 ft 409 kts 68°
2026-05-03 20:31 46.90215 -122.70184 12123 ft 413 kts 68°
2026-05-03 20:31 46.91228 -122.66260 10654 ft 403 kts 69°
2026-05-03 20:32 46.92227 -122.62393 9531 ft 393 kts 69°
2026-05-03 20:32 46.93168 -122.58798 8742 ft 365 kts 68°
2026-05-03 20:32 46.94228 -122.55586 7932 ft 342 kts 57°
2026-05-03 20:32 46.95675 -122.52905 6954 ft 329 kts 46°
2026-05-03 20:33 46.97303 -122.50603 5874 ft 322 kts 44°
2026-05-03 20:33 46.98923 -122.48314 4598 ft 327 kts 45°
2026-05-03 20:33 47.00542 -122.45901 3288 ft 338 kts 45°
2026-05-03 20:33 47.02279 -122.43554 2613 ft 335 kts 38°
2026-05-03 20:34 47.04112 -122.41655 3076 ft 311 kts 33°
2026-05-03 20:34 47.05871 -122.39942 3417 ft 303 kts 33°
2026-05-03 20:34 47.07664 -122.38257 3698 ft 312 kts 32°
2026-05-03 20:34 47.09553 -122.36551 3895 ft 324 kts 32°
2026-05-03 20:35 47.11508 -122.34775 3963 ft 336 kts 31°
2026-05-03 20:35 47.13529 -122.32942 3951 ft 345 kts 32°
2026-05-03 20:35 47.15626 -122.31111 3534 ft 359 kts 28°
2026-05-03 20:35 47.17869 -122.29470 3021 ft 362 kts 23°
2026-05-03 20:36 47.20160 -122.28230 3166 ft 347 kts 18°
2026-05-03 20:36 47.22425 -122.27166 2885 ft 340 kts 17°
2026-05-03 20:36 47.24656 -122.26021 2551 ft 340 kts 19°
2026-05-03 20:36 47.26874 -122.24913 2326 ft 335 kts 14°
2026-05-03 20:37 47.29124 -122.24485 2621 ft 314 kts 359°
2026-05-03 20:37 47.31214 -122.24959 2912 ft 298 kts 342°
2026-05-03 20:37 47.33091 -122.26129 2873 ft 291 kts 334°
2026-05-03 20:37 47.34901 -122.27512 2590 ft 294 kts 331°
2026-05-03 20:38 47.36656 -122.29058 2252 ft 290 kts 330°
2026-05-03 20:38 47.38374 -122.30404 1866 ft 269 kts 337°
2026-05-03 20:38 47.40139 -122.30977 1420 ft 253 kts 358°
2026-05-03 20:38 47.41833 -122.30808 972 ft 234 kts
2026-05-03 20:39 47.43359 -122.30834 461 ft 208 kts 359°
2026-05-03 20:39 47.44664 -122.30802 400 ft 144 kts
2026-05-03 20:39 47.45305 -122.30799 421 ft 52 kts 360°
2026-05-03 20:39 47.45488 -122.30790 428 ft 16 kts
2026-05-03 20:40 47.45575 -122.30756 432 ft 9 kts 60°
2026-05-03 20:40 47.45561 -122.30699 429 ft 0 kts 133°